Imperial, NE

2:40 PM MST on December 13, 2017 (GMT -0700)
Imperial Municipal

Weather History for KIML - October, 2013

Change the Weather History Date:

Thursday, October 24, 2013

  Actual Average Record
Temperature  
Mean Temperature 40 °F 47 °F  
Max Temperature 52 °F 61 °F 85 °F (1952)
Min Temperature 28 °F 33 °F 18 °F (1980)
Degree Days  
Heating Degree Days 25 18  
Month to date heating degree days 346 311  
Cooling Degree Days 0 0  
Month to date cooling degree days 0 3  
Year to date cooling degree days 1166 960  
Moisture  
Dew Point 33 °F    
Average Humidity 74    
Maximum Humidity 92    
Minimum Humidity 56    
Precipitation  
Precipitation 0.00 in 0.04 in 1.36 in (1916)
Sea Level Pressure  
Sea Level Pressure 30.35 in    
Wind  
Wind Speed 9 mph (SSE)    
Max Wind Speed 21 mph    
Max Gust Speed 28 mph    
Visibility 10 miles    
Events      
T = Trace of Precipitation, MM = Missing Value Source: NWS Daily Summary

Daily Weather History Graph

Daily Weather History Graph

Search for Another Location

Airport or City:

Trip Planner

Search our weather history database for the weather conditions in past years. The results will help you decide how hot, cold, wet, or windy it might be!

Date:

Astronomy

Oct. 24, 2013 Rise Set
Actual Time 7:07 AM MDT 5:52 PM MDT
Civil Twilight 6:39 AM MDT 6:20 PM MDT
Nautical Twilight 6:07 AM MDT 6:52 PM MDT
Astronomical Twilight 5:36 AM MDT 7:24 PM MDT
Moon 10:18 PM MDT (10/24) 12:10 PM MDT (10/24)
Length of Visible Light 11h 41m
Length of Day
10h 45m
Waning Gibbous, 70% of the Moon is Illuminated
Oct 24
Waning Gibbous
Oct 26
Last Quarter
Nov 3
New
Nov 9
First Quarter
Nov 17
Full

Hourly Weather History & Observations

Time (MDT) Temp. Windchill Dew Point Humidity Pressure Visibility Wind Dir Wind Speed Gust Speed Precip Events Conditions
12:53 AM 37.9 °F - 33.1 °F 83% 30.27 in 10.0 mi Calm Calm - N/A   Clear
1:53 AM 34.0 °F 31.0 °F 30.0 °F 85% 30.29 in 10.0 mi West 3.5 mph - N/A   Clear
2:53 AM 34.0 °F 31.0 °F 30.0 °F 85% 30.29 in 10.0 mi NW 3.5 mph - N/A   Clear
3:53 AM 33.1 °F 30.0 °F 30.0 °F 89% 30.30 in 10.0 mi NNW 3.5 mph - N/A   Clear
4:53 AM 30.9 °F 26.2 °F 28.9 °F 92% 30.31 in 10.0 mi Variable 4.6 mph - N/A   Clear
5:53 AM 30.9 °F - 28.9 °F 92% 30.33 in 10.0 mi Calm Calm - N/A   Clear
6:53 AM 28.0 °F 24.2 °F 26.1 °F 92% 30.38 in 6.0 mi Variable 3.5 mph - N/A   Clear
7:53 AM 30.0 °F 23.2 °F 28.0 °F 92% 30.40 in 10.0 mi SSE 6.9 mph - N/A   Partly Cloudy
8:08 AM 30.2 °F 23.4 °F 28.4 °F 93% 30.34 in 10.0 mi SSE 6.9 mph - N/A   Mostly Cloudy
8:53 AM 36.0 °F - 32.0 °F 86% 30.41 in 10.0 mi Calm Calm - N/A   Overcast
9:53 AM 41.0 °F 37.1 °F 37.0 °F 86% 30.41 in 10.0 mi South 5.8 mph - N/A   Overcast
10:53 AM 44.1 °F 39.5 °F 37.0 °F 76% 30.40 in 10.0 mi South 8.1 mph 17.3 mph N/A   Overcast
11:53 AM 46.0 °F 40.6 °F 37.0 °F 71% 30.40 in 10.0 mi South 11.5 mph - N/A   Overcast
12:53 PM 48.0 °F - 37.0 °F 66% 30.37 in 10.0 mi South 12.7 mph 19.6 mph N/A   Overcast
1:53 PM 48.9 °F - 37.0 °F 64% 30.35 in 10.0 mi SSE 13.8 mph 23.0 mph N/A   Mostly Cloudy
2:24 PM 51.8 °F - 37.4 °F 58% 30.29 in 10.0 mi SSE 17.3 mph 23.0 mph N/A   Scattered Clouds
2:53 PM 51.1 °F - 37.0 °F 59% 30.33 in 10.0 mi South 15.0 mph 24.2 mph N/A   Scattered Clouds
3:53 PM 51.1 °F - 37.0 °F 59% 30.32 in 10.0 mi South 17.3 mph 24.2 mph N/A   Partly Cloudy
4:53 PM 50.0 °F - 36.0 °F 59% 30.32 in 10.0 mi SSE 18.4 mph - N/A   Clear
5:53 PM 45.0 °F 39.7 °F 36.0 °F 71% 30.34 in 10.0 mi SSE 10.4 mph - N/A   Clear
6:53 PM 39.0 °F 34.8 °F 34.0 °F 82% 30.37 in 10.0 mi SE 5.8 mph - N/A   Clear
7:53 PM 37.0 °F 32.4 °F 32.0 °F 82% 30.38 in 10.0 mi SE 5.8 mph - N/A   Clear
8:53 PM 37.0 °F 29.3 °F 34.0 °F 89% 30.38 in 10.0 mi SSE 11.5 mph - N/A   Clear
9:53 PM 37.0 °F 27.4 °F 34.0 °F 89% 30.38 in 10.0 mi SSE 17.3 mph - N/A   Clear
10:53 PM 37.9 °F 28.5 °F 34.0 °F 86% 30.36 in 10.0 mi SSE 17.3 mph - N/A   Clear
11:53 PM 39.0 °F 30.6 °F 34.0 °F 82% 30.35 in 10.0 mi South 15.0 mph 20.7 mph N/A   Clear